Date String (YYYY-MM-DD hh:mm:ss) UTC,Instrument flags,absolute air pressure of the measurement (hPa),sample flow rate (lpm),inlet stack bypass flow (lpm),air temperature of the measurement (°C),ambient temperature measured by the external sensor (°C),aerosol sample conditioner tube jacket temperature (°C),OPC LED temperature (°C),internal box temperature (°C),relative humidity of the measurement (%),span deviation,mass concentration of particles derived from Lorenz-Mie calculation of OPC scattering (μg/m³),mass concentration of particles derived from Lorenz-Mie calculation of OPC scattering (μg/m³),mass concentration of particles derived from Lorenz-Mie calculation of OPC scattering (μg/m³)
DateTimeUTC,F1_M11,P_M11,Q1_M11,Q2_M11,T1_M11,T2_M11,T3_M11,T4_M11,T5_M11,U1_M11,ZSPAN_M11,X2_M11,X0_M11,X1_M11
2023-08-26 01:00:00,SystemResetWarning,0840.5,4.96,000.00,030.6,025.7,000.0,038.6,030.7,34.5,0000.0,0003.91,0005.73,0003.70
2023-08-26 01:01:00,SystemResetWarning,0840.4,5.02,000.00,030.7,026.1,000.0,038.6,030.7,34.2,0000.0,0003.92,0005.81,0003.71
2023-08-26 01:02:00,SystemResetWarning,0840.5,5.00,000.00,030.8,026.4,000.0,038.6,030.7,34.1,0000.0,0003.94,0005.92,0003.72
2023-08-26 01:03:00,SystemResetWarning,0840.5,4.99,000.00,030.8,026.7,000.0,038.7,030.8,34.1,0000.0,0003.94,0005.94,0003.72
2023-08-26 01:04:00,SystemResetWarning,0840.5,5.00,000.00,030.8,026.9,000.0,038.7,030.8,34.1,0000.0,0003.96,0005.93,0003.73
2023-08-26 01:05:00,SystemResetWarning,0840.5,5.00,000.00,030.8,027.1,000.0,038.8,030.8,34.1,0000.0,0003.96,0005.89,0003.73
2023-08-26 01:06:00,SystemResetWarning,0840.5,5.01,000.00,030.8,027.2,000.0,038.8,030.8,34.1,0000.0,0003.97,0005.81,0003.75
2023-08-26 01:07:00,SystemResetWarning,0840.4,5.00,000.00,030.8,027.4,000.0,038.8,030.8,34.1,0000.0,0003.98,0005.80,0003.77
2023-08-26 01:08:00,SystemResetWarning,0840.5,4.99,000.00,030.7,027.5,000.0,038.9,030.9,34.1,0000.0,0003.98,0005.75,0003.77
2023-08-26 01:09:00,SystemResetWarning,0840.4,4.99,000.00,030.7,027.6,000.0,038.9,030.9,34.2,0000.0,0003.98,0005.73,0003.77
2023-08-26 01:10:00,SystemResetWarning,0840.4,5.00,000.00,030.7,027.6,000.0,038.9,030.9,34.3,0000.0,0003.97,0005.73,0003.77
2023-08-26 01:11:00,SystemResetWarning,0840.4,5.00,000.00,030.7,027.7,000.0,038.9,031.0,34.3,0000.1,0003.97,0005.71,0003.75
2023-08-26 01:12:00,SystemResetWarning,0840.4,5.00,000.00,030.6,027.7,000.0,038.9,031.0,34.3,-000.1,0003.98,0005.75,0003.74
2023-08-26 01:13:00,SystemResetWarning,0840.4,5.01,000.00,030.6,027.8,000.0,038.9,031.0,34.4,0000.0,0003.97,0005.66,0003.73
2023-08-26 01:14:00,SystemResetWarning,0840.4,5.00,000.00,030.6,027.9,000.0,038.9,031.0,34.5,0000.0,0003.95,0005.56,0003.72
2023-08-26 01:15:00,SystemResetWarning,0840.4,4.99,000.00,030.6,027.9,000.0,038.9,031.1,34.3,0000.0,0003.92,0005.46,0003.70
2023-08-26 01:16:00,SystemResetWarning,0840.4,4.99,000.00,030.6,027.8,000.0,038.9,031.0,34.4,0000.0,0003.88,0005.30,0003.68
2023-08-26 01:17:00,SystemResetWarning,0840.4,4.99,000.00,030.6,026.1,000.0,038.7,030.9,34.3,0000.0,0003.84,0005.24,0003.63
2023-08-26 01:18:00,SystemResetWarning,0840.4,5.01,000.00,030.5,024.8,000.0,038.6,030.6,34.3,0000.0,0003.81,0005.30,0003.60
2023-08-26 01:19:00,SystemResetWarning,0840.4,4.99,000.00,030.3,024.6,000.0,038.5,030.4,34.5,0000.0,0003.78,0005.65,0003.55
2023-08-26 01:20:00,SystemResetWarning,0840.5,5.01,000.00,030.1,024.9,000.0,038.5,030.2,34.9,0000.0,0003.75,0005.66,0003.51
2023-08-26 01:21:00,SystemResetWarning,0840.4,4.99,000.00,030.0,025.3,000.0,038.6,030.3,35.2,0000.0,0003.70,0005.58,0003.46
2023-08-26 01:22:00,SystemResetWarning,0840.4,5.03,000.00,030.2,025.7,000.0,038.5,030.5,35.1,0000.0,0003.65,0005.46,0003.41
2023-08-26 01:23:00,SystemResetWarning,0840.4,4.98,000.00,030.4,026.1,000.0,038.5,030.6,34.6,0000.0,0003.57,0005.27,0003.36
2023-08-26 01:24:00,SystemResetWarning,0840.4,5.00,000.00,030.5,026.4,000.0,038.5,030.7,34.3,0000.0,0003.50,0005.05,0003.31
2023-08-26 01:25:00,SystemResetWarning,0840.4,5.01,000.00,030.6,026.6,000.0,038.5,030.7,34.2,0000.0,0003.45,0004.93,0003.26
2023-08-26 01:26:00,SystemResetWarning,0840.5,5.00,000.00,030.6,026.8,000.0,038.6,030.7,34.1,0000.0,0003.40,0004.87,0003.21
2023-08-26 01:27:00,SystemResetWarning,0840.4,4.99,000.00,030.6,027.0,000.0,038.6,030.7,34.1,0000.0,0003.36,0004.80,0003.18
2023-08-26 01:28:00,SystemResetWarning,0840.5,4.99,000.00,030.6,027.1,000.0,038.6,030.7,34.1,0000.0,0003.34,0004.77,0003.16
2023-08-26 01:29:00,SystemResetWarning,0840.5,5.00,000.00,030.6,027.2,000.0,038.7,030.8,34.2,0000.0,0003.32,0004.71,0003.13
2023-08-26 01:30:00,SystemResetWarning,0840.5,5.00,000.00,030.5,027.3,000.0,038.7,030.8,34.2,0000.0,0003.30,0004.34,0003.12
2023-08-26 01:31:00,SystemResetWarning,0840.5,5.01,000.00,030.5,027.4,000.0,038.7,030.8,34.2,0000.0,0003.27,0004.13,0003.10
2023-08-26 01:32:00,SystemResetWarning,0840.5,5.01,000.00,030.5,027.5,000.0,038.7,030.8,34.3,0000.0,0003.23,0004.05,0003.06
2023-08-26 01:33:00,SystemResetWarning,0840.5,5.00,000.00,030.5,027.5,000.0,038.7,030.8,34.4,0000.0,0003.22,0004.73,0003.04
2023-08-26 01:34:00,SystemResetWarning,0840.5,4.99,000.00,030.5,027.6,000.0,038.8,030.9,34.4,0000.0,0003.20,0005.11,0003.02
2023-08-26 01:35:00,SystemResetWarning,0840.5,5.00,000.00,030.4,027.6,000.0,038.8,030.8,34.6,0000.0,0003.19,0005.13,0003.00
2023-08-26 01:36:00,SystemResetWarning,0840.5,5.00,000.00,030.4,027.7,000.0,038.8,030.9,34.7,0000.0,0003.17,0005.08,0002.97
2023-08-26 01:37:00,SystemResetWarning,0840.5,5.00,000.00,030.4,027.7,000.0,038.8,030.9,34.8,0000.0,0003.14,0005.24,0002.93
2023-08-26 01:38:00,SystemResetWarning,0840.5,5.00,000.00,030.4,027.7,000.0,038.8,030.9,34.9,0000.0,0003.13,0006.05,0002.87
2023-08-26 01:39:00,SystemResetWarning,0840.5,5.00,000.00,030.4,027.7,000.0,038.8,030.9,34.9,0000.0,0003.09,0005.98,0002.82
2023-08-26 01:40:00,SystemResetWarning,0840.5,4.99,000.00,030.4,026.9,000.0,038.7,030.9,35.0,0000.0,0003.01,0005.78,0002.76
2023-08-26 01:41:00,SystemResetWarning,0840.5,5.03,000.00,030.5,025.2,000.0,038.5,030.7,34.8,0000.0,0002.90,0005.59,0002.68
2023-08-26 01:42:00,SystemResetWarning,0840.5,4.98,000.00,030.5,024.6,000.0,038.4,030.6,34.7,0000.0,0002.85,0005.52,0002.64
2023-08-26 01:43:00,SystemResetWarning,0840.5,5.02,000.00,030.4,024.7,000.0,038.4,030.3,34.9,0000.0,0002.82,0005.48,0002.62
2023-08-26 01:44:00,SystemResetWarning,0840.4,4.98,000.00,030.3,025.1,000.0,038.5,030.3,35.1,0000.0,0002.76,0004.73,0002.57
2023-08-26 01:45:00,SystemResetWarning,0840.5,5.04,000.00,030.5,025.5,000.0,038.5,030.4,34.9,0000.0,0002.73,0004.13,0002.55
2023-08-26 01:46:00,SystemResetWarning,0840.5,4.96,000.00,030.6,025.9,000.0,038.5,030.6,34.5,0000.0,0002.68,0004.05,0002.52
2023-08-26 01:47:00,SystemResetWarning,0840.5,5.02,000.00,030.7,026.2,000.0,038.5,030.6,34.4,0000.0,0002.64,0003.98,0002.48
2023-08-26 01:48:00,SystemResetWarning,0840.5,5.00,000.00,030.7,026.5,000.0,038.6,030.6,34.4,0000.0,0002.55,0003.77,0002.39
2023-08-26 01:49:00,SystemResetWarning,0840.5,4.98,000.00,030.7,026.7,000.0,038.6,030.6,34.4,0000.0,0002.45,0002.73,0002.31
2023-08-26 01:50:00,SystemResetWarning,0840.5,5.00,000.00,030.7,026.9,000.0,038.6,030.7,34.4,0000.0,0002.35,0002.64,0002.21
2023-08-26 01:51:00,SystemResetWarning,0840.4,5.00,000.00,030.7,027.0,000.0,038.7,030.7,34.4,0000.0,0002.26,0002.57,0002.10
2023-08-26 01:52:00,SystemResetWarning,0840.5,5.01,000.00,030.7,027.1,000.0,038.7,030.7,34.5,0000.0,0002.16,0002.47,0002.00
2023-08-26 01:53:00,SystemResetWarning,0840.5,5.01,000.00,030.6,027.2,000.0,038.7,030.7,34.6,0000.0,0002.07,0002.39,0001.91
2023-08-26 01:54:00,SystemResetWarning,0840.5,5.00,000.00,030.6,027.3,000.0,038.8,030.7,34.6,0000.0,0001.99,0002.29,0001.83
2023-08-26 01:55:00,SystemResetWarning,0840.5,4.99,000.00,030.6,027.4,000.0,038.8,030.8,34.8,0000.0,0001.94,0002.27,0001.76
2023-08-26 01:56:00,SystemResetWarning,0840.4,4.99,000.00,030.6,027.5,000.0,038.8,030.8,34.8,0000.0,0001.86,0002.20,0001.69
2023-08-26 01:57:00,SystemResetWarning,0840.5,5.00,000.00,030.5,027.5,000.0,038.8,030.8,34.9,0000.0,0001.77,0002.11,0001.59
2023-08-26 01:58:00,SystemResetWarning,0840.5,5.00,000.00,030.5,027.6,000.0,038.8,030.8,35.0,0000.0,0001.70,0002.05,0001.53
2023-08-26 01:59:00,SystemResetWarning,0840.5,5.01,000.00,030.7,027.6,000.0,038.8,030.9,34.8,0000.0,0001.71,0002.08,0001.53
